SCP
0 0 0 0 0 0 0 0 0 0 0 0 0 0 0 0 0 0 0 0 0 0 0 0 0 0 0 0 0 0 0 0 0 0 0 0 0 0 0 0 0 0 0 0 -0
0 0 0 0 0 0 0 0 0 0 0 0 0 0 0 0 0 0 0 0 0 0 0 0 0 0 0 0 0 0 0 0 0 0 0 0 0 0 0 0 0 0 0 0 0
0 0 0 0 0 0 0 0 0 0 0 0 0 -0 0 0 0 0 0 0 0 0 0 0 0 0 0 0 0 0 0 0 0 0 0 0 0 0 0 0 0 0 0 0 0
0 0 0 0 0 -0 0 0 0 0 0 0 0 -0 0 0 0 0 0 0 0 0 0 0 0 0 0 0 0 0 0 0 0 0 0 0 0 0 0 0 0 0 0 0 0
0 0 0 0 0 0 0 0 0 0 0 0 0 0 0 0 0 0 0 0 0 0 0 0 0 0 0 0 0 0 0 0 0 0 0 0 0 0 0 0 0 0 0 0 0
0 0 0 0 0 0 0 0 0 0 0 0 0 0 0 0 0 0 0 0 0 0 0 0 0 0 0 0 0 0 0 0 0 0 0 0 0 0 0 0 0 0 0 0 0
0 0 0 0 0 0 0 0 0 0 0 0 0 0 0 -0 0 -0 0 0 0 0 0 0 0 0 0 0 0 0 0 0 0 0 0 0 0 0 0 0 0 0 0 0 0
0 0 0 0 -0 0 0 0 0 0 0 0 0 0 0 0 0 -0 0 0 0 0 0 0 0 0 0 0 0 0 0 0 0 0 0 0 0 0 0 0 0 0 0 0 0
0 0 0 0 0 0 0 0 0 0 0 0 0 0 0 0 0 0 0 0 0 0 0 0 0 0 0 0 0 0 0 0 0 0 0 0 0 0 0 0 0 0 0 0 0
0 0 0 0 0 0 0 0 0 0 0 0 0 0 0 0 0 0 0 0 0 0 0 0 0 0 0 0 0 0 0 0 0 0 0 0 0 0 0 0 0 0 0 0 0
0 0 0 0 0 0 0 0 0 0 0 0 0 0 0 0 0 0 0 0 0 0 0 0 0 0 0 0 0 0 0 0 0 0 0 0 0 0 0 0 0 0 0 0 0
0 0 0 0 0 0 0 0 0 0 0 0 0 0 0 0 0 0 0 0 0 0 0 0 0 0 0 0 0 0 0 0 0 0 0 0 0 0 0 -0 0 0 0 0 0
0 0 0 0 0 0 0 0 0 0 0 0 0 0 0 0 0 0 0 0 0 0 0 0 0 0 0 0 0 0 0 0 0 0 0 0 -0 0 0 0 0 0 0 0 0
0 0 0 0 0 0 0 0 0 0 0 0 0 0 0 0 0 0 0 0 0 0 0 0 0 0 0 0 0 0 0 0 0 0 0 0 -0 -0 0 0 0 0 0 0 0
0 0 0 0 0 0 -0 0 0 0 0 0 0 0 0 0 0 0 0 0 0 0 0 0 0 0 0 0 0 0 0 0 0 0 0 0 0 -0 0 0 0 0 0 0 0
0 0 0 0 0 0 0 -0 0 0 0 0 0 0 0 0 0 0 0 0 0 0 0 0 0 0 0 0 0 0 0 0 0 0 0 0 0 -0 0 0 0 0 0 0 0
0 0 0 0 0 0 0 -0 0 0 0 0 0 0 0 0 0 0 0 0 0 0 0 0 0 0 0 0 0 0 0 0 0 0 0 0 0 0 0 -0 0 -0 0 0 0
0 0 0 0 0 0 0 0 0 0 0 0 0 0 0 0 0 0 0 0 0 0 0 0 0 0 0 0 0 0 0 0 0 0 0 0 0 0 0 -0 -0 -0 0 0 0
0 0 0 0 0 0 0 -0 0 0 0 0 0 0 0 0 0 0 0 0 0 0 0 0 0 0 0 0 0 0 0 0 0 0 0 0 0 0 0 0 0 0 0 0 0
0 0 0 0 0 0 0 -0 0 -0 0 0 0 0 0 0 0 0 0 0 0 0 0 0 0 0 0 0 0 0 0 0 0 0 0 0 0 0 0 -0 0 0 0 0 0
0 0 0 0 0 0 -0 -0 -0 -0 0 0 0 0 0 0 0 0 0 0 0 0 0 0 0 0 0 0 0 0 0 0 0 0 0 0 0 0 -0 0 0 0 0 0 0
0 0 0 0 0 0 0 -0 -0 0 0 0 0 0 0 0 0 0 0 0 0 0 0 0 0 0 0 0 0 0 0 0 0 0 0 0 0 0 0 -0 0 0 0 0 0
0 0 0 0 0 0 0 -0 -0 -0 0 0 0 0 0 0 0 0 0 0 0 0 0 0 0 0 0 0 0 0 0 0 0 0 0 0 0 0 0 0 0 0 0 0 0
0 0 0 0 0 0 0 -0 -0 -0 0 0 0 0 0 0 0 0 0 0 0 0 0 0 0 0 0 0 0 0 0 0 0 0 0 0 0 0 0 0 0 0 0 0 0
0 0 0 0 0 0 0 -0 -0 0 0 0 0 0 0 0 0 0 0 0 0 0 0 0 0 0 0 0 0 0 0 0 0 0 0 0 0 0 0 0 0 0 0 0 0
0 0 0 0 0 0 0 -0 -0 0 0 0 0 0 0 0 0 0 0 0 0 0 0 0 0 0 0 0 0 0 0 0 0 0 0 0 0 0 0 0 0 0 0 0 0
0 0 0 0 0 0 0 0 -0 0 0 0 0 0 0 0 0 0 0 0 0 0 0 0 0 0 0 0 0 0 0 0 0 0 0 0 0 0 0 0 0 0 0 0 0
Wind_Speed_500mb
45 44 51 52 69 58 55 56 54 57 77 61 44 64 62 49 51 49 54 46 42 32 34 27 20 19 19 15 12 14 7 12 11 9 4 9 14 8 12 10 14 19 7 12 42
44 45 51 54 49 54 35 57 54 59 58 62 44 39 69 44 45 55 64 50 42 48 41 29 23 24 10 11 15 10 9 17 7 9 3 7 14 14 10 14 14 18 22 20 45
42 47 47 52 54 75 54 54 57 58 56 58 45 44 50 50 19 41 63 55 53 37 44 31 31 25 7 11 11 7 10 11 7 9 7 4 10 12 15 15 28 32 33 31 46
44 45 46 42 53 55 65 49 57 59 61 58 42 44 38 58 17 30 57 58 53 52 38 36 30 21 11 15 8 8 6 8 11 11 6 6 5 10 26 25 7 25 31 36 45
44 39 46 44 54 50 58 48 52 61 62 56 57 64 53 41 44 15 46 61 52 51 52 42 40 20 15 13 13 10 10 11 8 9 7 7 9 10 21 34 23 14 32 38 40
47 44 40 43 40 60 55 55 38 64 65 62 65 70 70 38 55 17 8 62 67 60 53 49 28 22 18 10 19 7 14 10 5 6 7 8 6 9 11 26 36 26 32 38 42
50 43 39 38 54 28 59 57 62 64 65 67 76 69 67 64 55 50 27 35 67 67 60 47 30 28 22 10 5 7 5 3 11 8 8 11 15 19 20 15 30 39 37 38 42
52 43 36 36 36 46 35 55 51 45 68 64 76 83 37 60 52 38 34 26 51 60 55 54 35 23 12 23 11 3 5 5 10 16 11 13 31 16 17 25 30 34 33 38 43
52 42 40 38 40 35 44 53 62 49 70 62 80 89 16 54 64 63 54 51 48 47 34 41 33 19 19 22 9 4 10 24 7 22 8 19 20 10 14 27 36 36 34 36 38
57 46 40 39 39 36 38 34 58 57 63 55 51 38 28 66 84 69 55 52 45 51 38 30 17 9 8 20 17 14 9 11 15 12 14 15 31 28 13 22 36 34 36 37 41
65 55 45 38 32 33 35 35 44 32 66 70 36 58 46 51 69 69 58 65 45 53 21 36 20 31 35 28 7 21 13 20 8 5 7 26 33 34 38 25 28 38 36 41 50
68 64 55 47 41 37 33 49 25 10 48 78 47 73 42 72 40 62 68 43 43 38 33 18 40 28 31 27 11 6 8 15 10 3 10 24 35 33 40 43 42 40 42 44 47
63 54 54 46 44 46 49 60 26 49 19 75 45 56 61 57 47 71 91 44 48 45 49 37 26 40 31 33 28 12 17 13 12 1 10 15 31 35 27 47 40 44 45 40 48
55 51 47 44 36 49 59 51 33 58 12 20 21 32 49 44 18 65 80 50 20 48 44 21 27 43 37 40 41 25 23 21 11 8 13 5 16 16 12 32 30 51 56 60 60
55 52 51 48 20 34 33 55 52 58 15 32 16 30 52 40 55 44 77 25 41 37 25 24 35 40 39 45 39 13 22 18 7 12 9 18 14 7 7 19 34 51 58 68 66
56 51 47 39 41 30 29 45 34 18 17 14 24 24 31 29 35 60 31 28 24 18 9 7 7 28 30 22 36 32 22 11 4 4 18 29 20 17 20 30 32 44 59 69 83
59 51 47 43 31 29 26 18 11 17 13 17 17 36 40 18 27 55 41 30 25 26 33 11 16 8 21 28 17 20 32 8 10 12 15 3 13 27 14 31 29 29 33 41 53
59 50 44 38 25 13 21 4 9 5 14 10 22 45 26 22 26 59 56 36 24 21 28 31 19 31 20 20 24 42 36 13 18 13 7 4 18 9 20 44 44 36 35 34 26
57 50 42 39 31 22 30 5 6 8 12 29 39 43 14 16 19 45 59 57 43 28 23 32 16 14 15 11 31 33 32 11 11 5 2 12 10 20 33 30 22 31 32 42 39
60 43 37 41 37 34 6 18 10 1 17 37 18 41 24 32 27 41 54 54 45 30 2 18 13 15 9 14 3 30 25 15 7 11 12 10 10 18 10 24 15 17 25 37 40
56 23 26 43 42 26 7 15 15 18 20 31 30 26 40 35 42 55 74 32 52 31 10 27 11 13 15 24 35 17 29 12 14 8 7 4 7 16 26 13 12 19 27 25 31
49 9 33 64 12 7 10 17 20 5 35 20 21 27 49 64 45 45 48 21 63 44 30 9 10 16 44 8 7 26 27 27 13 13 7 2 11 7 14 13 8 18 15 8 16
40 15 55 69 16 15 11 14 21 17 21 12 24 26 33 44 23 41 30 39 72 46 39 19 6 13 11 10 3 32 20 43 18 3 14 10 10 10 3 10 13 11 11 8 11
27 10 12 27 10 16 17 14 14 27 19 26 16 18 42 39 13 35 29 18 61 48 44 25 7 11 21 13 17 17 26 27 26 9 11 31 30 2 6 13 6 11 11 10 13
14 10 13 11 13 19 26 24 26 13 19 38 16 36 45 29 32 23 16 15 29 45 17 21 13 6 5 11 20 14 24 22 29 51 24 63 35 31 21 7 5 7 9 11 14
19 10 10 6 26 23 26 20 26 16 17 14 29 46 44 30 41 38 40 33 30 19 31 5 8 19 4 5 7 10 29 44 54 45 52 53 56 1 26 38 24 33 26 23 14
16 20 14 15 13 16 14 14 27 26 26 26 23 30 33 28 44 33 35 47 36 33 26 16 10 9 32 10 11 7 54 44 45 52 52 49 34 25 17 23 48 54 59 52 42
Wind_Direction_500mb
243 241 238 232 238 249 223 225 228 221 219 227 226 217 190 187 202 204 203 208 200 186 191 189 193 178 171 160 146 142 172 205 204 193 230 157 198 166 200 165 181 191 169 183 180
242 240 237 231 227 237 227 224 225 223 213 217 219 213 218 187 197 214 204 202 193 190 167 182 179 169 168 151 152 182 216 200 183 178 206 197 205 174 187 188 202 194 193 173 183
242 238 235 231 221 248 252 229 223 222 216 207 216 203 218 195 231 225 200 194 188 181 193 177 171 170 145 163 158 183 216 171 187 192 185 194 202 197 203 215 220 213 194 189 188
240 244 238 235 231 226 232 231 219 215 216 211 205 190 201 203 216 219 208 190 186 180 168 186 196 161 157 170 168 176 172 167 156 169 169 196 163 212 216 227 220 225 211 204 195
233 239 238 235 225 220 229 234 211 211 215 208 203 186 212 194 221 232 189 197 190 186 191 185 178 171 174 169 143 230 149 186 181 195 218 239 223 246 244 235 240 230 206 212 208
231 233 239 237 234 221 228 221 215 209 218 210 208 190 182 211 233 205 221 194 199 196 199 192 185 169 128 150 200 207 175 139 176 213 217 219 227 196 249 230 222 219 213 213 217
231 230 231 236 240 244 229 222 232 204 213 211 209 187 191 197 222 232 237 206 200 202 196 192 200 186 149 114 129 97 119 281 220 212 241 201 232 224 238 239 214 214 216 216 217
228 229 226 224 231 245 245 214 229 212 206 212 215 199 201 199 210 245 235 212 203 203 202 192 193 155 153 124 70 273 251 169 217 194 219 202 258 245 229 217 219 220 218 218 222
223 220 219 216 209 235 249 223 228 238 202 211 194 198 195 193 208 223 222 208 190 188 182 181 164 172 147 141 111 356 220 216 233 208 200 210 260 251 223 213 226 219 221 224 226
220 215 212 216 217 219 249 250 217 230 201 206 220 171 185 191 192 202 196 199 172 167 152 158 163 139 133 175 184 177 218 231 211 174 213 211 246 255 242 231 238 228 223 225 229
217 216 211 212 216 215 228 236 203 208 219 194 183 201 192 183 186 196 188 170 159 162 170 183 183 194 174 181 187 184 161 240 224 187 223 237 252 253 249 233 244 239 223 223 229
219 217 222 221 225 222 217 226 226 200 181 200 227 197 177 174 162 178 173 159 171 177 159 172 213 193 180 180 141 135 124 242 271 174 221 264 261 259 251 239 236 238 236 231 230
217 213 214 215 224 223 228 240 243 223 204 198 201 187 177 181 171 171 169 174 182 171 181 186 184 162 165 182 184 195 195 212 259 158 236 287 272 250 241 233 236 240 241 241 236
204 200 196 205 216 220 221 229 245 218 207 169 195 195 170 176 158 175 175 163 178 192 178 195 171 168 170 182 184 190 197 218 214 229 253 246 281 245 265 236 220 233 234 238 239
196 199 197 206 207 200 239 226 252 213 214 154 159 171 160 174 137 190 175 194 179 169 170 177 166 172 185 186 185 192 167 185 176 242 280 228 263 247 262 257 239 230 232 236 238
194 196 195 201 223 211 203 227 269 196 196 148 137 166 144 199 167 159 181 183 147 145 182 116 173 179 189 170 183 137 120 96 123 260 257 245 230 252 241 248 250 240 236 235 239
191 195 194 196 211 234 222 204 272 201 150 157 156 161 156 162 176 165 179 168 163 150 182 153 169 115 149 139 168 180 162 156 221 218 247 88 240 256 245 249 235 250 247 238 237
187 190 198 192 178 176 182 110 253 86 167 142 155 150 166 148 202 174 175 181 199 205 156 172 198 180 172 189 173 187 179 184 188 199 200 140 239 234 249 254 262 264 264 258 255
178 185 190 194 191 184 146 197 250 266 157 149 150 156 138 169 162 178 179 189 189 186 163 181 172 164 181 146 156 182 209 161 105 22 223 211 252 261 254 261 268 266 261 255 241
167 171 194 184 186 173 183 192 276 124 321 152 151 186 158 161 159 176 186 196 189 190 193 183 128 188 136 120 166 188 150 187 229 192 228 212 251 234 207 233 265 270 254 258 245
158 152 191 194 181 169 207 181 227 278 245 207 170 174 181 171 178 187 187 179 188 172 164 169 117 156 158 202 181 159 192 192 189 221 237 259 227 219 234 170 271 291 267 288 227
154 147 174 171 167 196 187 174 170 287 239 270 197 179 182 178 178 186 188 180 184 166 171 150 106 154 190 52 257 197 195 191 190 194 255 17 256 176 213 204 271 315 298 271 225
146 125 162 175 190 174 186 201 197 201 243 258 193 198 171 174 177 197 177 213 172 174 175 170 125 115 151 231 211 205 190 205 204 86 198 185 244 44 180 225 278 283 292 270 215
147 155 172 185 213 173 159 195 197 194 227 232 249 167 160 181 134 186 165 167 181 181 178 146 133 150 187 204 133 191 199 202 202 225 186 235 236 350 214 235 235 229 249 247 225
147 182 178 164 189 197 180 192 189 177 207 221 242 178 169 171 184 166 155 137 180 186 158 174 161 106 91 160 163 160 181 178 197 226 210 246 243 232 251 243 225 237 210 211 232
141 158 156 158 156 179 190 207 194 157 181 201 227 179 170 167 184 178 171 170 172 181 181 246 175 175 92 95 135 163 185 193 210 216 231 248 257 101 239 231 232 229 230 230 247
156 144 158 172 160 176 197 192 196 169 207 216 218 181 187 183 187 158 159 169 148 161 173 167 119 135 217 141 98 287 212 204 217 219 227 236 239 191 208 222 237 249 254 253 250
Wind_Speed_850mb
45 44 51 52 69 58 55 56 54 57 77 61 44 64 62 49 51 49 54 46 42 32 34 27 20 19 19 15 12 14 7 12 11 9 4 9 14 8 12 10 14 19 7 12 42
44 45 51 54 49 54 35 57 54 59 58 62 44 39 69 44 45 55 64 50 42 48 41 29 23 24 10 11 15 10 9 17 7 9 3 7 14 14 10 14 14 18 22 20 45
42 47 47 52 54 75 54 54 57 58 56 58 45 44 50 50 19 41 63 55 53 37 44 31 31 25 7 11 11 7 10 11 7 9 7 4 10 12 15 15 28 32 33 31 46
44 45 46 42 53 55 65 49 57 59 61 58 42 44 38 58 17 30 57 58 53 52 38 36 30 21 11 15 8 8 6 8 11 11 6 6 5 10 26 25 7 25 31 36 45
44 39 46 44 54 50 58 48 52 61 62 56 57 64 53 41 44 15 46 61 52 51 52 42 40 20 15 13 13 10 10 11 8 9 7 7 9 10 21 34 23 14 32 38 40
47 44 40 43 40 60 55 55 38 64 65 62 65 70 70 38 55 17 8 62 67 60 53 49 28 22 18 10 19 7 14 10 5 6 7 8 6 9 11 26 36 26 32 38 42
50 43 39 38 54 28 59 57 62 64 65 67 76 69 67 64 55 50 27 35 67 67 60 47 30 28 22 10 5 7 5 3 11 8 8 11 15 19 20 15 30 39 37 38 42
52 43 36 36 36 46 35 55 51 45 68 64 76 83 37 60 52 38 34 26 51 60 55 54 35 23 12 23 11 3 5 5 10 16 11 13 31 16 17 25 30 34 33 38 43
52 42 40 38 40 35 44 53 62 49 70 62 80 89 16 54 64 63 54 51 48 47 34 41 33 19 19 22 9 4 10 24 7 22 8 19 20 10 14 27 36 36 34 36 38
57 46 40 39 39 36 38 34 58 57 63 55 51 38 28 66 84 69 55 52 45 51 38 30 17 9 8 20 17 14 9 11 15 12 14 15 31 28 13 22 36 34 36 37 41
65 55 45 38 32 33 35 35 44 32 66 70 36 58 46 51 69 69 58 65 45 53 21 36 20 31 35 28 7 21 13 20 8 5 7 26 33 34 38 25 28 38 36 41 50
68 64 55 47 41 37 33 49 25 10 48 78 47 73 42 72 40 62 68 43 43 38 33 18 40 28 31 27 11 6 8 15 10 3 10 24 35 33 40 43 42 40 42 44 47
63 54 54 46 44 46 49 60 26 49 19 75 45 56 61 57 47 71 91 44 48 45 49 37 26 40 31 33 28 12 17 13 12 1 10 15 31 35 27 47 40 44 45 40 48
55 51 47 44 36 49 59 51 33 58 12 20 21 32 49 44 18 65 80 50 20 48 44 21 27 43 37 40 41 25 23 21 11 8 13 5 16 16 12 32 30 51 56 60 60
55 52 51 48 20 34 33 55 52 58 15 32 16 30 52 40 55 44 77 25 41 37 25 24 35 40 39 45 39 13 22 18 7 12 9 18 14 7 7 19 34 51 58 68 66
56 51 47 39 41 30 29 45 34 18 17 14 24 24 31 29 35 60 31 28 24 18 9 7 7 28 30 22 36 32 22 11 4 4 18 29 20 17 20 30 32 44 59 69 83
59 51 47 43 31 29 26 18 11 17 13 17 17 36 40 18 27 55 41 30 25 26 33 11 16 8 21 28 17 20 32 8 10 12 15 3 13 27 14 31 29 29 33 41 53
59 50 44 38 25 13 21 4 9 5 14 10 22 45 26 22 26 59 56 36 24 21 28 31 19 31 20 20 24 42 36 13 18 13 7 4 18 9 20 44 44 36 35 34 26
57 50 42 39 31 22 30 5 6 8 12 29 39 43 14 16 19 45 59 57 43 28 23 32 16 14 15 11 31 33 32 11 11 5 2 12 10 20 33 30 22 31 32 42 39
60 43 37 41 37 34 6 18 10 1 17 37 18 41 24 32 27 41 54 54 45 30 2 18 13 15 9 14 3 30 25 15 7 11 12 10 10 18 10 24 15 17 25 37 40
56 23 26 43 42 26 7 15 15 18 20 31 30 26 40 35 42 55 74 32 52 31 10 27 11 13 15 24 35 17 29 12 14 8 7 4 7 16 26 13 12 19 27 25 31
49 9 33 64 12 7 10 17 20 5 35 20 21 27 49 64 45 45 48 21 63 44 30 9 10 16 44 8 7 26 27 27 13 13 7 2 11 7 14 13 8 18 15 8 16
40 15 55 69 16 15 11 14 21 17 21 12 24 26 33 44 23 41 30 39 72 46 39 19 6 13 11 10 3 32 20 43 18 3 14 10 10 10 3 10 13 11 11 8 11
27 10 12 27 10 16 17 14 14 27 19 26 16 18 42 39 13 35 29 18 61 48 44 25 7 11 21 13 17 17 26 27 26 9 11 31 30 2 6 13 6 11 11 10 13
14 10 13 11 13 19 26 24 26 13 19 38 16 36 45 29 32 23 16 15 29 45 17 21 13 6 5 11 20 14 24 22 29 51 24 63 35 31 21 7 5 7 9 11 14
19 10 10 6 26 23 26 20 26 16 17 14 29 46 44 30 41 38 40 33 30 19 31 5 8 19 4 5 7 10 29 44 54 45 52 53 56 1 26 38 24 33 26 23 14
16 20 14 15 13 16 14 14 27 26 26 26 23 30 33 28 44 33 35 47 36 33 26 16 10 9 32 10 11 7 54 44 45 52 52 49 34 25 17 23 48 54 59 52 42
Wind_Direction_850mb
243 241 238 232 238 249 223 225 228 221 219 227 226 217 190 187 202 204 203 208 200 186 191 189 193 178 171 160 146 142 172 205 204 193 230 157 198 166 200 165 181 191 169 183 180
242 240 237 231 227 237 227 224 225 223 213 217 219 213 218 187 197 214 204 202 193 190 167 182 179 169 168 151 152 182 216 200 183 178 206 197 205 174 187 188 202 194 193 173 183
242 238 235 231 221 248 252 229 223 222 216 207 216 203 218 195 231 225 200 194 188 181 193 177 171 170 145 163 158 183 216 171 187 192 185 194 202 197 203 215 220 213 194 189 188
240 244 238 235 231 226 232 231 219 215 216 211 205 190 201 203 216 219 208 190 186 180 168 186 196 161 157 170 168 176 172 167 156 169 169 196 163 212 216 227 220 225 211 204 195
233 239 238 235 225 220 229 234 211 211 215 208 203 186 212 194 221 232 189 197 190 186 191 185 178 171 174 169 143 230 149 186 181 195 218 239 223 246 244 235 240 230 206 212 208
231 233 239 237 234 221 228 221 215 209 218 210 208 190 182 211 233 205 221 194 199 196 199 192 185 169 128 150 200 207 175 139 176 213 217 219 227 196 249 230 222 219 213 213 217
231 230 231 236 240 244 229 222 232 204 213 211 209 187 191 197 222 232 237 206 200 202 196 192 200 186 149 114 129 97 119 281 220 212 241 201 232 224 238 239 214 214 216 216 217
228 229 226 224 231 245 245 214 229 212 206 212 215 199 201 199 210 245 235 212 203 203 202 192 193 155 153 124 70 273 251 169 217 194 219 202 258 245 229 217 219 220 218 218 222
223 220 219 216 209 235 249 223 228 238 202 211 194 198 195 193 208 223 222 208 190 188 182 181 164 172 147 141 111 356 220 216 233 208 200 210 260 251 223 213 226 219 221 224 226
220 215 212 216 217 219 249 250 217 230 201 206 220 171 185 191 192 202 196 199 172 167 152 158 163 139 133 175 184 177 218 231 211 174 213 211 246 255 242 231 238 228 223 225 229
217 216 211 212 216 215 228 236 203 208 219 194 183 201 192 183 186 196 188 170 159 162 170 183 183 194 174 181 187 184 161 240 224 187 223 237 252 253 249 233 244 239 223 223 229
219 217 222 221 225 222 217 226 226 200 181 200 227 197 177 174 162 178 173 159 171 177 159 172 213 193 180 180 141 135 124 242 271 174 221 264 261 259 251 239 236 238 236 231 230
217 213 214 215 224 223 228 240 243 223 204 198 201 187 177 181 171 171 169 174 182 171 181 186 184 162 165 182 184 195 195 212 259 158 236 287 272 250 241 233 236 240 241 241 236
204 200 196 205 216 220 221 229 245 218 207 169 195 195 170 176 158 175 175 163 178 192 178 195 171 168 170 182 184 190 197 218 214 229 253 246 281 245 265 236 220 233 234 238 239
196 199 197 206 207 200 239 226 252 213 214 154 159 171 160 174 137 190 175 194 179 169 170 177 166 172 185 186 185 192 167 185 176 242 280 228 263 247 262 257 239 230 232 236 238
194 196 195 201 223 211 203 227 269 196 196 148 137 166 144 199 167 159 181 183 147 145 182 116 173 179 189 170 183 137 120 96 123 260 257 245 230 252 241 248 250 240 236 235 239
191 195 194 196 211 234 222 204 272 201 150 157 156 161 156 162 176 165 179 168 163 150 182 153 169 115 149 139 168 180 162 156 221 218 247 88 240 256 245 249 235 250 247 238 237
187 190 198 192 178 176 182 110 253 86 167 142 155 150 166 148 202 174 175 181 199 205 156 172 198 180 172 189 173 187 179 184 188 199 200 140 239 234 249 254 262 264 264 258 255
178 185 190 194 191 184 146 197 250 266 157 149 150 156 138 169 162 178 179 189 189 186 163 181 172 164 181 146 156 182 209 161 105 22 223 211 252 261 254 261 268 266 261 255 241
167 171 194 184 186 173 183 192 276 124 321 152 151 186 158 161 159 176 186 196 189 190 193 183 128 188 136 120 166 188 150 187 229 192 228 212 251 234 207 233 265 270 254 258 245
158 152 191 194 181 169 207 181 227 278 245 207 170 174 181 171 178 187 187 179 188 172 164 169 117 156 158 202 181 159 192 192 189 221 237 259 227 219 234 170 271 291 267 288 227
154 147 174 171 167 196 187 174 170 287 239 270 197 179 182 178 178 186 188 180 184 166 171 150 106 154 190 52 257 197 195 191 190 194 255 17 256 176 213 204 271 315 298 271 225
146 125 162 175 190 174 186 201 197 201 243 258 193 198 171 174 177 197 177 213 172 174 175 170 125 115 151 231 211 205 190 205 204 86 198 185 244 44 180 225 278 283 292 270 215
147 155 172 185 213 173 159 195 197 194 227 232 249 167 160 181 134 186 165 167 181 181 178 146 133 150 187 204 133 191 199 202 202 225 186 235 236 350 214 235 235 229 249 247 225
147 182 178 164 189 197 180 192 189 177 207 221 242 178 169 171 184 166 155 137 180 186 158 174 161 106 91 160 163 160 181 178 197 226 210 246 243 232 251 243 225 237 210 211 232
141 158 156 158 156 179 190 207 194 157 181 201 227 179 170 167 184 178 171 170 172 181 181 246 175 175 92 95 135 163 185 193 210 216 231 248 257 101 239 231 232 229 230 230 247
156 144 158 172 160 176 197 192 196 169 207 216 218 181 187 183 187 158 159 169 148 161 173 167 119 135 217 141 98 287 212 204 217 219 227 236 239 191 208 222 237 249 254 253 250